EWG5SR EDDG-LOWI

Flight info

Callsign EWG5SR
Flight time 1h 1m
Altitude 35000
Route DOMEG3Y DOMEG Z841 GMH Q603 TESGA L603 BOMBI/N0456F310 T104 WLD M867 BAVAX Z106 MANAL M736 TULSI TULSI3A
Aircraft A320/M-SDE3FGHIRWY/LB1

Departure

Time 2026-05-06 15:09
Airport Münster Osnabrück Airport (EDDG)

Arrival

Time 2026-05-06 16:11
Airport Innsbruck Airport (LOWI)
Time Latitude Longitude Altitude Speed Heading
2026-05-06 14:27 52.13129 7.69208 168 ft 0 kts 197°
2026-05-06 15:04 52.13126 7.69206 167 ft 4 kts 199°
2026-05-06 15:04 52.13120 7.69163 167 ft 3 kts 307°
2026-05-06 15:05 52.13151 7.69146 167 ft 8 kts 343°
2026-05-06 15:05 52.13174 7.69083 167 ft 7 kts 258°
2026-05-06 15:05 52.13160 7.68996 167 ft 11 kts 268°
2026-05-06 15:05 52.13221 7.68920 167 ft 12 kts 337°
2026-05-06 15:06 52.13307 7.68872 167 ft 14 kts 341°
2026-05-06 15:06 52.13344 7.68745 167 ft 15 kts 250°
2026-05-06 15:06 52.13306 7.68563 168 ft 18 kts 251°
2026-05-06 15:06 52.13260 7.68340 168 ft 23 kts 251°
2026-05-06 15:07 52.13205 7.68083 168 ft 25 kts 251°
2026-05-06 15:07 52.13143 7.67797 167 ft 28 kts 251°
2026-05-06 15:07 52.13077 7.67485 167 ft 30 kts 251°
2026-05-06 15:07 52.13023 7.67214 167 ft 19 kts 269°
2026-05-06 15:08 52.13105 7.67050 167 ft 18 kts 342°
2026-05-06 15:08 52.13163 7.67055 166 ft 8 kts 59°
2026-05-06 15:08 52.13174 7.67104 166 ft 0 kts 73°
2026-05-06 15:08 52.13239 7.67417 164 ft 70 kts 71°
2026-05-06 15:09 52.13472 7.68515 168 ft 135 kts 71°
2026-05-06 15:09 52.13833 7.70213 355 ft 168 kts 71°
2026-05-06 15:09 52.13917 7.72052 1100 ft 159 kts 115°
2026-05-06 15:09 52.13167 7.73042 1924 ft 138 kts 180°
2026-05-06 15:10 52.12146 7.72706 2294 ft 165 kts 199°
2026-05-06 15:10 52.11012 7.72056 2604 ft 183 kts 199°
2026-05-06 15:10 52.09718 7.71390 2827 ft 207 kts 197°
2026-05-06 15:10 52.08258 7.70725 3149 ft 229 kts 195°
2026-05-06 15:11 52.06641 7.70060 3516 ft 253 kts 194°
2026-05-06 15:11 52.04875 7.69395 4204 ft 263 kts 193°
2026-05-06 15:11 52.03071 7.68767 5067 ft 267 kts 192°
2026-05-06 15:11 52.01235 7.68158 5923 ft 271 kts 192°
2026-05-06 15:12 51.99378 7.67559 6762 ft 274 kts 191°
2026-05-06 15:12 51.97492 7.66962 7590 ft 278 kts 191°
2026-05-06 15:12 51.95581 7.66364 8406 ft 281 kts 191°
2026-05-06 15:12 51.93650 7.65764 9195 ft 285 kts 191°
2026-05-06 15:13 51.91702 7.65158 9968 ft 288 kts 191°
2026-05-06 15:13 51.89694 7.64533 10451 ft 304 kts 191°
2026-05-06 15:13 51.87536 7.63862 10668 ft 327 kts 191°
2026-05-06 15:13 51.85222 7.63143 10850 ft 349 kts 191°
2026-05-06 15:14 51.82797 7.62392 11338 ft 359 kts 191°
2026-05-06 15:14 51.80326 7.61626 11994 ft 364 kts 191°
2026-05-06 15:14 51.77862 7.60861 12647 ft 367 kts 191°
2026-05-06 15:14 51.75342 7.60077 13289 ft 371 kts 191°
2026-05-06 15:15 51.72776 7.59473 13916 ft 375 kts 183°
2026-05-06 15:15 51.70165 7.59635 14528 ft 379 kts 172°
2026-05-06 15:15 51.67591 7.60620 15128 ft 382 kts 161°
2026-05-06 15:15 51.65076 7.62065 15726 ft 385 kts 160°
2026-05-06 15:16 51.62538 7.63522 16312 ft 389 kts 160°
2026-05-06 15:16 51.59980 7.64984 16882 ft 392 kts 161°
2026-05-06 15:16 51.57397 7.66454 17444 ft 395 kts 161°
2026-05-06 15:16 51.55643 7.67449 17814 ft 397 kts 161°
2026-05-06 15:17 51.53021 7.68931 18354 ft 401 kts 161°
2026-05-06 15:17 51.50384 7.70419 18880 ft 404 kts 161°
2026-05-06 15:17 51.47720 7.71922 19392 ft 407 kts 161°
2026-05-06 15:17 51.45038 7.73439 19904 ft 410 kts 161°
2026-05-06 15:18 51.42335 7.74970 20381 ft 413 kts 161°
2026-05-06 15:18 51.39615 7.76514 20846 ft 416 kts 161°
2026-05-06 15:18 51.36878 7.78065 21298 ft 419 kts 161°
2026-05-06 15:18 51.34117 7.79623 21724 ft 422 kts 161°
2026-05-06 15:19 51.31335 7.81187 22138 ft 425 kts 161°
2026-05-06 15:19 51.28537 7.82760 22548 ft 428 kts 161°
2026-05-06 15:19 51.25720 7.84348 22938 ft 430 kts 161°
2026-05-06 15:19 51.22890 7.85942 23313 ft 433 kts 161°
2026-05-06 15:20 51.20041 7.87541 23687 ft 435 kts 161°
2026-05-06 15:20 51.17245 7.89289 24032 ft 438 kts 154°
2026-05-06 15:20 51.14565 7.91723 24374 ft 440 kts 147°
2026-05-06 15:20 51.11983 7.94360 24724 ft 442 kts 147°
2026-05-06 15:21 51.09386 7.97011 25053 ft 444 kts 147°
2026-05-06 15:21 51.06773 7.99672 25357 ft 447 kts 147°
2026-05-06 15:21 51.04149 8.02337 25665 ft 449 kts 147°
2026-05-06 15:21 51.01506 8.05017 25959 ft 451 kts 148°
2026-05-06 15:22 50.98853 8.07701 26256 ft 453 kts 148°
2026-05-06 15:22 50.96189 8.10392 26553 ft 455 kts 148°
2026-05-06 15:22 50.93510 8.13094 26823 ft 457 kts 148°
2026-05-06 15:22 50.90859 8.15767 27080 ft 459 kts 148°
2026-05-06 15:23 50.88126 8.18518 27348 ft 460 kts 148°
2026-05-06 15:23 50.85416 8.21240 27598 ft 462 kts 148°
2026-05-06 15:23 50.82697 8.23963 27822 ft 464 kts 148°
2026-05-06 15:23 50.79966 8.26700 28051 ft 466 kts 148°
2026-05-06 15:24 50.77261 8.29414 28285 ft 467 kts 148°
2026-05-06 15:24 50.74515 8.32163 28514 ft 467 kts 148°
2026-05-06 15:24 50.71774 8.34898 28838 ft 466 kts 148°
2026-05-06 15:24 50.69034 8.37627 29137 ft 465 kts 148°
2026-05-06 15:25 50.66295 8.40346 29428 ft 465 kts 148°
2026-05-06 15:25 50.63563 8.43055 29720 ft 464 kts 148°
2026-05-06 15:25 50.60829 8.45762 30016 ft 463 kts 148°
2026-05-06 15:25 50.58103 8.48457 30315 ft 462 kts 148°
2026-05-06 15:26 50.55382 8.51147 30615 ft 461 kts 148°
2026-05-06 15:26 50.52667 8.53827 30892 ft 461 kts 148°
2026-05-06 15:26 50.49949 8.56507 31170 ft 461 kts 148°
2026-05-06 15:26 50.47237 8.59181 31444 ft 460 kts 148°
2026-05-06 15:27 50.44442 8.61598 31718 ft 459 kts 156°
2026-05-06 15:27 50.41449 8.63344 31981 ft 459 kts 163°
2026-05-06 15:27 50.38393 8.64771 32255 ft 458 kts 163°
2026-05-06 15:27 50.35342 8.66192 32528 ft 457 kts 163°
2026-05-06 15:28 50.32295 8.67614 32785 ft 457 kts 163°
2026-05-06 15:28 50.29252 8.69034 33042 ft 456 kts 163°
2026-05-06 15:28 50.26212 8.70456 33321 ft 455 kts 163°
2026-05-06 15:28 50.23179 8.71876 33590 ft 455 kts 163°
2026-05-06 15:29 50.20155 8.73288 33849 ft 454 kts 163°
2026-05-06 15:29 50.17127 8.74699 34111 ft 453 kts 163°
2026-05-06 15:29 50.14107 8.76106 34365 ft 453 kts 163°
2026-05-06 15:29 50.11091 8.77508 34623 ft 452 kts 163°
2026-05-06 15:30 50.08099 8.79018 34863 ft 452 kts 158°
2026-05-06 15:30 50.05293 8.81199 34985 ft 453 kts 148°
2026-05-06 15:30 50.02757 8.84123 35007 ft 455 kts 138°
2026-05-06 15:31 49.98081 8.90774 35007 ft 456 kts 137°
2026-05-06 15:31 49.93390 8.97407 35011 ft 456 kts 138°
2026-05-06 15:32 49.86326 9.07323 35006 ft 457 kts 138°
2026-05-06 15:32 49.81614 9.13923 35006 ft 457 kts 138°
2026-05-06 15:33 49.76892 9.20508 35008 ft 457 kts 138°
2026-05-06 15:33 49.72175 9.27083 35011 ft 457 kts 138°
2026-05-06 15:34 49.67452 9.33656 35006 ft 457 kts 138°
2026-05-06 15:34 49.62717 9.40208 35006 ft 457 kts 137°
2026-05-06 15:35 49.58418 9.47428 35000 ft 458 kts 131°
2026-05-06 15:35 49.54227 9.54816 35001 ft 458 kts 131°
2026-05-06 15:36 49.50014 9.62176 35004 ft 458 kts 131°
2026-05-06 15:36 49.45801 9.69521 35007 ft 458 kts 131°
2026-05-06 15:37 49.41585 9.76865 35014 ft 458 kts 131°
2026-05-06 15:37 49.37364 9.84195 35006 ft 458 kts 131°
2026-05-06 15:38 49.33138 9.91513 35008 ft 458 kts 131°
2026-05-06 15:38 49.28895 9.98811 35009 ft 459 kts 132°
2026-05-06 15:39 49.24643 10.06097 35006 ft 459 kts 132°
2026-05-06 15:39 49.20388 10.13369 35005 ft 458 kts 132°
2026-05-06 15:40 49.16136 10.20639 35003 ft 459 kts 132°
2026-05-06 15:40 49.11860 10.27866 35005 ft 459 kts 133°
2026-05-06 15:41 49.07463 10.34929 35015 ft 459 kts 134°
2026-05-06 15:41 49.03034 10.41931 35006 ft 459 kts 134°
2026-05-06 15:42 48.98617 10.48948 35008 ft 459 kts 134°
2026-05-06 15:42 48.94210 10.55969 35006 ft 459 kts 134°
2026-05-06 15:43 48.89804 10.62991 35014 ft 459 kts 134°
2026-05-06 15:43 48.87629 10.66455 34787 ft 459 kts 134°
2026-05-06 15:43 48.85395 10.70002 34535 ft 459 kts 134°
2026-05-06 15:44 48.83210 10.73454 34286 ft 459 kts 134°
2026-05-06 15:44 48.80995 10.76951 34056 ft 460 kts 134°
2026-05-06 15:44 48.76559 10.83943 34010 ft 461 kts 134°
2026-05-06 15:45 48.72094 10.90927 34009 ft 461 kts 134°
2026-05-06 15:45 48.67636 10.97876 34009 ft 460 kts 134°
2026-05-06 15:46 48.63180 11.04827 34009 ft 460 kts 134°
2026-05-06 15:46 48.58713 11.11753 34009 ft 460 kts 134°
2026-05-06 15:47 48.54362 11.18841 34010 ft 461 kts 131°
2026-05-06 15:47 48.50212 11.26208 34009 ft 461 kts 130°
2026-05-06 15:48 48.46074 11.33572 34008 ft 461 kts 130°
2026-05-06 15:48 48.41873 11.40869 34009 ft 461 kts 131°
2026-05-06 15:49 48.37641 11.48119 34009 ft 461 kts 131°
2026-05-06 15:49 48.33407 11.55346 34009 ft 461 kts 131°
2026-05-06 15:50 48.29104 11.62476 34007 ft 461 kts 137°
2026-05-06 15:50 48.23805 11.67788 34006 ft 460 kts 156°
2026-05-06 15:51 48.17688 11.70517 34008 ft 460 kts 167°
2026-05-06 15:51 48.11445 11.72621 34008 ft 460 kts 168°
2026-05-06 15:52 48.05179 11.74600 34010 ft 460 kts 168°
2026-05-06 15:52 47.98904 11.76542 34009 ft 461 kts 168°
2026-05-06 15:53 47.92720 11.79000 34006 ft 461 kts 165°
2026-05-06 15:53 47.89563 11.79705 34008 ft 460 kts 180°
2026-05-06 15:53 47.86368 11.79630 34010 ft 460 kts 181°
2026-05-06 15:54 47.79965 11.79351 34009 ft 460 kts 182°
2026-05-06 15:54 47.73554 11.79052 34009 ft 461 kts 180°
2026-05-06 15:55 47.67237 11.78094 33361 ft 457 kts 204°
2026-05-06 15:55 47.64537 11.75650 32506 ft 457 kts 221°
2026-05-06 15:55 47.62385 11.72200 31817 ft 454 kts 235°
2026-05-06 15:56 47.60806 11.68195 31092 ft 451 kts 246°
2026-05-06 15:56 47.59545 11.63947 30393 ft 447 kts 246°
2026-05-06 15:56 47.58326 11.59760 29746 ft 439 kts 247°
2026-05-06 15:56 47.57142 11.55638 29089 ft 431 kts 247°
2026-05-06 15:57 47.55991 11.51584 28441 ft 424 kts 247°
2026-05-06 15:57 47.54863 11.47594 27789 ft 418 kts 247°
2026-05-06 15:57 47.53747 11.43649 27138 ft 412 kts 247°
2026-05-06 15:57 47.52645 11.39770 26487 ft 406 kts 247°
2026-05-06 15:58 47.51552 11.35944 25839 ft 401 kts 247°
2026-05-06 15:58 47.50467 11.32163 25184 ft 397 kts 247°
2026-05-06 15:58 47.49392 11.28425 24535 ft 393 kts 247°
2026-05-06 15:58 47.48325 11.24719 23760 ft 392 kts 247°
2026-05-06 15:59 47.47250 11.21003 22861 ft 394 kts 247°
2026-05-06 15:59 47.46170 11.17271 21957 ft 396 kts 247°
2026-05-06 15:59 47.45451 11.14786 21361 ft 398 kts 247°
2026-05-06 15:59 47.44365 11.11032 20449 ft 395 kts 247°
2026-05-06 16:00 47.42950 11.06140 19254 ft 388 kts 247°
2026-05-06 16:00 47.41897 11.02503 18348 ft 383 kts 247°
2026-05-06 16:00 47.40853 10.98914 17446 ft 378 kts 247°
2026-05-06 16:00 47.40152 10.96512 16892 ft 374 kts 247°
2026-05-06 16:01 47.39147 10.93075 16560 ft 355 kts 247°
2026-05-06 16:01 47.38196 10.89818 16227 ft 337 kts 247°
2026-05-06 16:01 47.37286 10.86708 15810 ft 325 kts 247°
2026-05-06 16:01 47.36401 10.83682 15344 ft 318 kts 246°
2026-05-06 16:02 47.35529 10.80709 14855 ft 315 kts 246°
2026-05-06 16:02 47.34662 10.77750 14386 ft 314 kts 247°
2026-05-06 16:02 47.33738 10.74815 13914 ft 317 kts 238°
2026-05-06 16:02 47.32287 10.72374 13437 ft 319 kts 217°
2026-05-06 16:03 47.30317 10.70872 12961 ft 321 kts 195°
2026-05-06 16:03 47.28099 10.70576 12483 ft 323 kts 173°
2026-05-06 16:03 47.25956 10.71527 12005 ft 324 kts 151°
2026-05-06 16:03 47.24209 10.73589 11530 ft 324 kts 129°
2026-05-06 16:04 47.23114 10.76466 11058 ft 324 kts 107°
2026-05-06 16:04 47.22832 10.79696 10570 ft 314 kts 85°
2026-05-06 16:04 47.23336 10.82686 10203 ft 299 kts 65°
2026-05-06 16:04 47.24240 10.85367 9829 ft 286 kts 63°
2026-05-06 16:05 47.25115 10.87935 9454 ft 277 kts 63°
2026-05-06 16:05 47.25969 10.90450 9074 ft 273 kts 63°
2026-05-06 16:05 47.26815 10.92942 8702 ft 271 kts 63°
2026-05-06 16:05 47.27642 10.95388 8328 ft 262 kts 63°
2026-05-06 16:06 47.28437 10.97743 7949 ft 252 kts 63°
2026-05-06 16:06 47.29206 11.00022 7573 ft 246 kts 63°
2026-05-06 16:06 47.29965 11.02268 7198 ft 244 kts 63°
2026-05-06 16:06 47.30694 11.04505 6863 ft 242 kts 70°
2026-05-06 16:07 47.30904 11.06920 6447 ft 237 kts 98°
2026-05-06 16:07 47.30402 11.09188 6060 ft 231 kts 114°
2026-05-06 16:07 47.29730 11.11312 5710 ft 224 kts 116°
2026-05-06 16:07 47.29060 11.13342 5321 ft 216 kts 116°
2026-05-06 16:08 47.28407 11.15294 4915 ft 208 kts 116°
2026-05-06 16:08 47.27788 11.17143 4513 ft 196 kts 116°
2026-05-06 16:08 47.27200 11.18905 4114 ft 187 kts 116°
2026-05-06 16:08 47.26646 11.20570 3730 ft 175 kts 116°
2026-05-06 16:09 47.26165 11.22172 3358 ft 168 kts 109°
2026-05-06 16:09 47.25859 11.23764 3091 ft 157 kts 104°
2026-05-06 16:09 47.25626 11.25306 2854 ft 152 kts 99°
2026-05-06 16:09 47.25523 11.26845 2637 ft 151 kts 92°
2026-05-06 16:10 47.25522 11.28380 2429 ft 149 kts 89°
2026-05-06 16:10 47.25584 11.29901 2278 ft 149 kts 85°
2026-05-06 16:10 47.25702 11.31408 2151 ft 149 kts 81°
2026-05-06 16:10 47.25855 11.32884 1974 ft 141 kts 82°
2026-05-06 16:11 47.25997 11.34176 1894 ft 98 kts 80°
2026-05-06 16:11 47.26055 11.34723 1895 ft 11 kts 81°
2026-05-06 16:11 47.26076 11.34908 1904 ft 28 kts 81°
2026-05-06 16:11 47.26106 11.35191 1903 ft 17 kts 83°
2026-05-06 16:12 47.26056 11.35254 1907 ft 8 kts 174°
2026-05-06 16:12 47.25993 11.35273 1897 ft 10 kts 169°
2026-05-06 16:12 47.25930 11.35287 1907 ft 8 kts 177°
2026-05-06 16:12 47.25880 11.35280 1907 ft 6 kts 176°
2026-05-06 16:13 47.25848 11.35287 1902 ft 1 kts 171°
2026-05-06 16:13 47.25847 11.35287 1902 ft 0 kts 171°